Weather in Generalskoe

Russia / Republic of Crimea     44°47′58″N   34°29′00″E
temp.,
°C
wind,
m/s
gust,
m/s
humid.,
%
clouds,
%
prec.,
mm/h
press.,
hPa
HPBL,
m
1 march, mon
mon100:00+2nw348349 0.2 1024394
03:00+1nw448355 0.3 1024337
06:00+1nw338092 0.0 1024197
09:00+2nnw227391 0.0 1025322
12:00+3se228177 0.1 1026477
15:00+2se229088 0.6 1026265
18:00+2ne1291100 0.6 1027193
21:00+1n128385 0.8 1029164
2 march, tue
tue200:000n227922 0.0 1030219
03:000nnw337914 0.0 1030214
06:000nnw33786 0.0 1030237
09:00+1nw22683 0.0 1031286
12:00+3s23627 0.0 1031662
15:00+4s447319 0.0 1030605
18:00+3wnw237442 0.0 1027409
21:00+1nw568047 0.0 1027177
3 march, wed
wed300:00+1nw678366 0.0 1025234
03:00+2w598257 0.0 1023660
06:00+4w6118490 0.0 10221057
09:00+4nw478295 0.1 1023670
12:00+3nnw578396 0.2 1024666
15:00+4nnw466372 0.3 10251110
18:00+4nnw466823 0.0 1026772
21:00+2nw447011 0.0 1029259
4 march, thu
thu400:00+2nw33700 0.0 1029155
03:00+2nw22670 0.0 1028120
06:00+1nw11640 0.0 1028140
09:00+3e01610 0.0 1027267
12:00+4s44690 0.0 1026820
15:00+4ssw567817 0.0 1024588
18:00+4ssw558048 0.0 1022498
21:00+2ssw458437 0.0 1022476
5 march, fri
fri500:00+3ssw468258 0.0 1021607
03:00+3ssw458458 0.0 1019481
06:00+2ssw248445 0.0 1018280
09:00+3s248147 0.0 1019354
12:00+5s448037 0.0 1018379
15:00+5s458833 0.0 1017302
18:00+5s348757 0.0 1016286
21:00+4ssw249170 0.0 1016249